Погода в Алмазном

Россия / Республика Саха (Якутия)     62°26′59″N   114°19′43″E
темп.,
°C
ветер,
м/с
пор.,
м/с
влажн.,
%
обл.,
%
осадки,
мм/ч
давл.,
гПа
погр.,
м
27 февраля, сб
сб2700:00−29всв2598100 0.1 1024167
03:00−30всв229999 0.1 102437
06:00−30св1198100 0.1 102519
09:00−31зсз0197100 0.1 102619
12:00−25зюз2594100 0.0 1026328
15:00−23зюз3589100 0.0 1025547
18:00−23з2694100 0.0 1026345
21:00−28зюз3397100 0.1 102783
28 февраля, вс
вс2800:00−30з369727 0.0 102896
03:00−33зюз239813 0.0 102845
06:00−34зюз339818 0.0 102980
09:00−34зюз26989 0.0 103088
12:00−28зюз479118 0.0 1031436
15:00−25зюз478450 0.0 1030937
18:00−27зюз2591100 0.0 1032113
21:00−31зюз239796 0.0 103222
1 марта, пн
пн100:00−33зюз23980 0.0 103219
03:00−34юз22990 0.0 103219
06:00−35юз22990 0.0 103219
09:00−36юз12990 0.0 103219
12:00−29зюз239118 0.0 1031319
15:00−26зюз238357 0.0 1029736
18:00−29з1193100 0.0 102919
21:00−34сз00100100 0.0 102919
2 марта, вт
вт200:00−36ссв1110052 0.0 102819
03:00−38св1110044 0.0 102819
06:00−38св1110056 0.0 102819
09:00−38св1210056 0.0 102818
12:00−32св239448 0.0 1026249
15:00−29св249473 0.0 1026345
18:00−31ссв239692 0.0 102640
21:00−35ссв229962 0.0 102819
3 марта, ср
ср300:00−37ссв229968 0.0 102819
03:00−38с229964 0.0 102918
06:00−39с229864 0.0 102918
09:00−39ссз129770 0.0 103018
12:00−33ссз129289 0.0 1030285
15:00−30сз238895 0.0 1029459
18:00−32сз2295100 0.0 102947
21:00−36зсз229851 0.0 103019